Date_Time,Julian_Date,Latitude,Longitude,Instrument_Depth,Water_Salinity
(yyyy-mm-dd hh:mn:ss UTC),(JD),(+ deg. North),(+ deg. East),(m),(ppt)
1982-03-02 19:00:00 UTC,2445031.291667,28.7317,-95.2428,0215,0.3830
1982-03-02 19:30:00 UTC,2445031.312500,28.7317,-95.2428,0215,0.3820
1982-03-02 20:00:00 UTC,2445031.333333,28.7317,-95.2428,0215,0.3810
1982-03-02 20:30:00 UTC,2445031.354167,28.7317,-95.2428,0215,0.3800
1982-03-02 21:00:00 UTC,2445031.375000,28.7317,-95.2428,0215,0.3790
1982-03-02 21:30:00 UTC,2445031.395833,28.7317,-95.2428,0215,0.3790
1982-03-02 22:00:00 UTC,2445031.416667,28.7317,-95.2428,0215,0.3810
1982-03-02 22:30:00 UTC,2445031.437500,28.7317,-95.2428,0215,0.3790
1982-03-02 23:00:00 UTC,2445031.458333,28.7317,-95.2428,0215,0.3760
1982-03-02 23:30:00 UTC,2445031.479167,28.7317,-95.2428,0215,0.3740
1982-03-03 00:00:00 UTC,2445031.500000,28.7317,-95.2428,0215,0.3710
1982-03-03 00:30:00 UTC,2445031.520833,28.7317,-95.2428,0215,0.3700
1982-03-03 01:00:00 UTC,2445031.541667,28.7317,-95.2428,0215,0.3720
1982-03-03 01:30:00 UTC,2445031.562500,28.7317,-95.2428,0215,0.3760
1982-03-03 02:00:00 UTC,2445031.583333,28.7317,-95.2428,0215,0.3770
1982-03-03 02:30:00 UTC,2445031.604167,28.7317,-95.2428,0215,0.3760
1982-03-03 03:00:00 UTC,2445031.625000,28.7317,-95.2428,0215,0.3760
1982-03-03 03:30:00 UTC,2445031.645833,28.7317,-95.2428,0215,0.3780
1982-03-03 04:00:00 UTC,2445031.666667,28.7317,-95.2428,0215,0.3810
1982-03-03 04:30:00 UTC,2445031.687500,28.7317,-95.2428,0215,0.3830
1982-03-03 05:00:00 UTC,2445031.708333,28.7317,-95.2428,0215,0.3840
1982-03-03 05:30:00 UTC,2445031.729167,28.7317,-95.2428,0215,0.3850
1982-03-03 06:00:00 UTC,2445031.750000,28.7317,-95.2428,0215,0.3860
1982-03-03 06:30:00 UTC,2445031.770833,28.7317,-95.2428,0215,0.3840
1982-03-03 07:00:00 UTC,2445031.791667,28.7317,-95.2428,0215,0.3810
1982-03-03 07:30:00 UTC,2445031.812500,28.7317,-95.2428,0215,0.3770
1982-03-03 08:00:00 UTC,2445031.833333,28.7317,-95.2428,0215,0.3730
1982-03-03 08:30:00 UTC,2445031.854167,28.7317,-95.2428,0215,0.3710
1982-03-03 09:00:00 UTC,2445031.875000,28.7317,-95.2428,0215,0.3700
1982-03-03 09:30:00 UTC,2445031.895833,28.7317,-95.2428,0215,0.3700
1982-03-03 10:00:00 UTC,2445031.916667,28.7317,-95.2428,0215,0.3730
1982-03-03 10:30:00 UTC,2445031.937500,28.7317,-95.2428,0215,0.3750
1982-03-03 11:00:00 UTC,2445031.958333,28.7317,-95.2428,0215,0.3750
1982-03-03 11:30:00 UTC,2445031.979167,28.7317,-95.2428,0215,0.3740
1982-03-03 12:00:00 UTC,2445032.000000,28.7317,-95.2428,0215,0.3750
1982-03-03 12:30:00 UTC,2445032.020833,28.7317,-95.2428,0215,0.3730
1982-03-03 13:00:00 UTC,2445032.041667,28.7317,-95.2428,0215,0.3700
1982-03-03 13:30:00 UTC,2445032.062500,28.7317,-95.2428,0215,0.3680
1982-03-03 14:00:00 UTC,2445032.083333,28.7317,-95.2428,0215,0.3670
1982-03-03 14:30:00 UTC,2445032.104167,28.7317,-95.2428,0215,0.3680
1982-03-03 15:00:00 UTC,2445032.125000,28.7317,-95.2428,0215,0.3680
1982-03-03 15:30:00 UTC,2445032.145833,28.7317,-95.2428,0215,0.3680
1982-03-03 16:00:00 UTC,2445032.166667,28.7317,-95.2428,0215,0.3680
1982-03-03 16:30:00 UTC,2445032.187500,28.7317,-95.2428,0215,0.3660
1982-03-03 17:00:00 UTC,2445032.208333,28.7317,-95.2428,0215,0.3650
1982-03-03 17:30:00 UTC,2445032.229167,28.7317,-95.2428,0215,0.3650
1982-03-03 18:00:00 UTC,2445032.250000,28.7317,-95.2428,0215,0.3640
1982-03-03 18:30:00 UTC,2445032.270833,28.7317,-95.2428,0215,0.3630
1982-03-03 19:00:00 UTC,2445032.291667,28.7317,-95.2428,0215,0.3620
1982-03-03 19:30:00 UTC,2445032.312500,28.7317,-95.2428,0215,0.3640
1982-03-03 20:00:00 UTC,2445032.333333,28.7317,-95.2428,0215,0.3680
1982-03-03 20:30:00 UTC,2445032.354167,28.7317,-95.2428,0215,0.3700
1982-03-03 21:00:00 UTC,2445032.375000,28.7317,-95.2428,0215,0.3690
1982-03-03 21:30:00 UTC,2445032.395833,28.7317,-95.2428,0215,0.3670
1982-03-03 22:00:00 UTC,2445032.416667,28.7317,-95.2428,0215,0.3670
1982-03-03 22:30:00 UTC,2445032.437500,28.7317,-95.2428,0215,0.3680
1982-03-03 23:00:00 UTC,2445032.458333,28.7317,-95.2428,0215,0.3690
1982-03-03 23:30:00 UTC,2445032.479167,28.7317,-95.2428,0215,0.3720
1982-03-04 00:00:00 UTC,2445032.500000,28.7317,-95.2428,0215,0.3710
1982-03-04 00:30:00 UTC,2445032.520833,28.7317,-95.2428,0215,0.3670
1982-03-04 01:00:00 UTC,2445032.541667,28.7317,-95.2428,0215,0.3650
1982-03-04 01:30:00 UTC,2445032.562500,28.7317,-95.2428,0215,0.3630
1982-03-04 02:00:00 UTC,2445032.583333,28.7317,-95.2428,0215,0.3610
1982-03-04 02:30:00 UTC,2445032.604167,28.7317,-95.2428,0215,0.3600
1982-03-04 03:00:00 UTC,2445032.625000,28.7317,-95.2428,0215,0.3620
1982-03-04 03:30:00 UTC,2445032.645833,28.7317,-95.2428,0215,0.3640
1982-03-04 04:00:00 UTC,2445032.666667,28.7317,-95.2428,0215,0.3670
1982-03-04 04:30:00 UTC,2445032.687500,28.7317,-95.2428,0215,0.3700
1982-03-04 05:00:00 UTC,2445032.708333,28.7317,-95.2428,0215,0.3720
1982-03-04 05:30:00 UTC,2445032.729167,28.7317,-95.2428,0215,0.3740
1982-03-04 06:00:00 UTC,2445032.750000,28.7317,-95.2428,0215,0.3750
1982-03-04 06:30:00 UTC,2445032.770833,28.7317,-95.2428,0215,0.3770
1982-03-04 07:00:00 UTC,2445032.791667,28.7317,-95.2428,0215,0.3780
1982-03-04 07:30:00 UTC,2445032.812500,28.7317,-95.2428,0215,0.3770
1982-03-04 08:00:00 UTC,2445032.833333,28.7317,-95.2428,0215,0.3750
1982-03-04 08:30:00 UTC,2445032.854167,28.7317,-95.2428,0215,0.3720
1982-03-04 09:00:00 UTC,2445032.875000,28.7317,-95.2428,0215,0.3700
1982-03-04 09:30:00 UTC,2445032.895833,28.7317,-95.2428,0215,0.3700
1982-03-04 10:00:00 UTC,2445032.916667,28.7317,-95.2428,0215,0.3710
1982-03-04 10:30:00 UTC,2445032.937500,28.7317,-95.2428,0215,0.3720
1982-03-04 11:00:00 UTC,2445032.958333,28.7317,-95.2428,0215,0.3720
1982-03-04 11:30:00 UTC,2445032.979167,28.7317,-95.2428,0215,0.3690
1982-03-04 12:00:00 UTC,2445033.000000,28.7317,-95.2428,0215,0.3680
1982-03-04 12:30:00 UTC,2445033.020833,28.7317,-95.2428,0215,0.3690
1982-03-04 13:00:00 UTC,2445033.041667,28.7317,-95.2428,0215,0.3700
1982-03-04 13:30:00 UTC,2445033.062500,28.7317,-95.2428,0215,0.3710
1982-03-04 14:00:00 UTC,2445033.083333,28.7317,-95.2428,0215,0.3720
1982-03-04 14:30:00 UTC,2445033.104167,28.7317,-95.2428,0215,0.3720
1982-03-04 15:00:00 UTC,2445033.125000,28.7317,-95.2428,0215,0.3720
1982-03-04 15:30:00 UTC,2445033.145833,28.7317,-95.2428,0215,0.3710
1982-03-04 16:00:00 UTC,2445033.166667,28.7317,-95.2428,0215,0.3700
1982-03-04 16:30:00 UTC,2445033.187500,28.7317,-95.2428,0215,0.3690
1982-03-04 17:00:00 UTC,2445033.208333,28.7317,-95.2428,0215,0.3690
1982-03-04 17:30:00 UTC,2445033.229167,28.7317,-95.2428,0215,0.3700
1982-03-04 18:00:00 UTC,2445033.250000,28.7317,-95.2428,0215,0.3700
1982-03-04 18:30:00 UTC,2445033.270833,28.7317,-95.2428,0215,0.3680
1982-03-04 19:00:00 UTC,2445033.291667,28.7317,-95.2428,0215,0.3660
1982-03-04 19:30:00 UTC,2445033.312500,28.7317,-95.2428,0215,0.3670
1982-03-04 20:00:00 UTC,2445033.333333,28.7317,-95.2428,0215,0.3680
1982-03-04 20:30:00 UTC,2445033.354167,28.7317,-95.2428,0215,0.3690
1982-03-04 21:00:00 UTC,2445033.375000,28.7317,-95.2428,0215,0.3710
1982-03-04 21:30:00 UTC,2445033.395833,28.7317,-95.2428,0215,0.3740
1982-03-04 22:00:00 UTC,2445033.416667,28.7317,-95.2428,0215,0.3750
1982-03-04 22:30:00 UTC,2445033.437500,28.7317,-95.2428,0215,0.3750
1982-03-04 23:00:00 UTC,2445033.458333,28.7317,-95.2428,0215,0.3760
1982-03-04 23:30:00 UTC,2445033.479167,28.7317,-95.2428,0215,0.3780
1982-03-05 00:00:00 UTC,2445033.500000,28.7317,-95.2428,0215,0.3790
1982-03-05 00:30:00 UTC,2445033.520833,28.7317,-95.2428,0215,0.3790
1982-03-05 01:00:00 UTC,2445033.541667,28.7317,-95.2428,0215,0.3800
1982-03-05 01:30:00 UTC,2445033.562500,28.7317,-95.2428,0215,0.3800
1982-03-05 02:00:00 UTC,2445033.583333,28.7317,-95.2428,0215,0.3790
1982-03-05 02:30:00 UTC,2445033.604167,28.7317,-95.2428,0215,0.3770
1982-03-05 03:00:00 UTC,2445033.625000,28.7317,-95.2428,0215,0.3760
1982-03-05 03:30:00 UTC,2445033.645833,28.7317,-95.2428,0215,0.3760
1982-03-05 04:00:00 UTC,2445033.666667,28.7317,-95.2428,0215,0.3760
1982-03-05 04:30:00 UTC,2445033.687500,28.7317,-95.2428,0215,0.3750
1982-03-05 05:00:00 UTC,2445033.708333,28.7317,-95.2428,0215,0.3720
1982-03-05 05:30:00 UTC,2445033.729167,28.7317,-95.2428,0215,0.3690
1982-03-05 06:00:00 UTC,2445033.750000,28.7317,-95.2428,0215,0.3670
1982-03-05 06:30:00 UTC,2445033.770833,28.7317,-95.2428,0215,0.3660
1982-03-05 07:00:00 UTC,2445033.791667,28.7317,-95.2428,0215,0.3660
1982-03-05 07:30:00 UTC,2445033.812500,28.7317,-95.2428,0215,0.3650
1982-03-05 08:00:00 UTC,2445033.833333,28.7317,-95.2428,0215,0.3650
1982-03-05 08:30:00 UTC,2445033.854167,28.7317,-95.2428,0215,0.3650
1982-03-05 09:00:00 UTC,2445033.875000,28.7317,-95.2428,0215,0.3650
1982-03-05 09:30:00 UTC,2445033.895833,28.7317,-95.2428,0215,0.3650
1982-03-05 10:00:00 UTC,2445033.916667,28.7317,-95.2428,0215,0.3660
1982-03-05 10:30:00 UTC,2445033.937500,28.7317,-95.2428,0215,0.3670
1982-03-05 11:00:00 UTC,2445033.958333,28.7317,-95.2428,0215,0.3670
1982-03-05 11:30:00 UTC,2445033.979167,28.7317,-95.2428,0215,0.3680
1982-03-05 12:00:00 UTC,2445034.000000,28.7317,-95.2428,0215,0.3680
1982-03-05 12:30:00 UTC,2445034.020833,28.7317,-95.2428,0215,0.3680
1982-03-05 13:00:00 UTC,2445034.041667,28.7317,-95.2428,0215,0.3680
1982-03-05 13:30:00 UTC,2445034.062500,28.7317,-95.2428,0215,0.3690
1982-03-05 14:00:00 UTC,2445034.083333,28.7317,-95.2428,0215,0.3700
1982-03-05 14:30:00 UTC,2445034.104167,28.7317,-95.2428,0215,0.3700
1982-03-05 15:00:00 UTC,2445034.125000,28.7317,-95.2428,0215,0.3710
1982-03-05 15:30:00 UTC,2445034.145833,28.7317,-95.2428,0215,0.3710
1982-03-05 16:00:00 UTC,2445034.166667,28.7317,-95.2428,0215,0.3720
1982-03-05 16:30:00 UTC,2445034.187500,28.7317,-95.2428,0215,0.3730
1982-03-05 17:00:00 UTC,2445034.208333,28.7317,-95.2428,0215,0.3740
1982-03-05 17:30:00 UTC,2445034.229167,28.7317,-95.2428,0215,0.3760
1982-03-05 18:00:00 UTC,2445034.250000,28.7317,-95.2428,0215,0.3770
1982-03-05 18:30:00 UTC,2445034.270833,28.7317,-95.2428,0215,0.3770
1982-03-05 19:00:00 UTC,2445034.291667,28.7317,-95.2428,0215,0.3770
1982-03-05 19:30:00 UTC,2445034.312500,28.7317,-95.2428,0215,0.3750
1982-03-05 20:00:00 UTC,2445034.333333,28.7317,-95.2428,0215,0.3740
1982-03-05 20:30:00 UTC,2445034.354167,28.7317,-95.2428,0215,0.3730
1982-03-05 21:00:00 UTC,2445034.375000,28.7317,-95.2428,0215,0.3730
1982-03-05 21:30:00 UTC,2445034.395833,28.7317,-95.2428,0215,0.3720
1982-03-05 22:00:00 UTC,2445034.416667,28.7317,-95.2428,0215,0.3710
1982-03-05 22:30:00 UTC,2445034.437500,28.7317,-95.2428,0215,0.3700
1982-03-05 23:00:00 UTC,2445034.458333,28.7317,-95.2428,0215,0.3690
1982-03-05 23:30:00 UTC,2445034.479167,28.7317,-95.2428,0215,0.3690
1982-03-06 00:00:00 UTC,2445034.500000,28.7317,-95.2428,0215,0.3690
1982-03-06 00:30:00 UTC,2445034.520833,28.7317,-95.2428,0215,0.3690
1982-03-06 01:00:00 UTC,2445034.541667,28.7317,-95.2428,0215,0.3690
1982-03-06 01:30:00 UTC,2445034.562500,28.7317,-95.2428,0215,0.3680
1982-03-06 02:00:00 UTC,2445034.583333,28.7317,-95.2428,0215,0.3670
1982-03-06 02:30:00 UTC,2445034.604167,28.7317,-95.2428,0215,0.3660
1982-03-06 03:00:00 UTC,2445034.625000,28.7317,-95.2428,0215,0.3660
1982-03-06 03:30:00 UTC,2445034.645833,28.7317,-95.2428,0215,0.3660
1982-03-06 04:00:00 UTC,2445034.666667,28.7317,-95.2428,0215,0.3660
1982-03-06 04:30:00 UTC,2445034.687500,28.7317,-95.2428,0215,0.3650
1982-03-06 05:00:00 UTC,2445034.708333,28.7317,-95.2428,0215,0.3650
1982-03-06 05:30:00 UTC,2445034.729167,28.7317,-95.2428,0215,0.3650
1982-03-06 06:00:00 UTC,2445034.750000,28.7317,-95.2428,0215,0.3640
1982-03-06 06:30:00 UTC,2445034.770833,28.7317,-95.2428,0215,0.3640
1982-03-06 07:00:00 UTC,2445034.791667,28.7317,-95.2428,0215,0.3640
1982-03-06 07:30:00 UTC,2445034.812500,28.7317,-95.2428,0215,0.3630
1982-03-06 08:00:00 UTC,2445034.833333,28.7317,-95.2428,0215,0.3640
1982-03-06 08:30:00 UTC,2445034.854167,28.7317,-95.2428,0215,0.3640
1982-03-06 09:00:00 UTC,2445034.875000,28.7317,-95.2428,0215,0.3640
1982-03-06 09:30:00 UTC,2445034.895833,28.7317,-95.2428,0215,0.3640
1982-03-06 10:00:00 UTC,2445034.916667,28.7317,-95.2428,0215,0.3630
1982-03-06 10:30:00 UTC,2445034.937500,28.7317,-95.2428,0215,0.3620
1982-03-06 11:00:00 UTC,2445034.958333,28.7317,-95.2428,0215,0.3610
1982-03-06 11:30:00 UTC,2445034.979167,28.7317,-95.2428,0215,0.3590
1982-03-06 12:00:00 UTC,2445035.000000,28.7317,-95.2428,0215,0.3580
1982-03-06 12:30:00 UTC,2445035.020833,28.7317,-95.2428,0215,0.3590
1982-03-06 13:00:00 UTC,2445035.041667,28.7317,-95.2428,0215,0.3600
1982-03-06 13:30:00 UTC,2445035.062500,28.7317,-95.2428,0215,0.3590
1982-03-06 14:00:00 UTC,2445035.083333,28.7317,-95.2428,0215,0.3590
1982-03-06 14:30:00 UTC,2445035.104167,28.7317,-95.2428,0215,0.3580
1982-03-06 15:00:00 UTC,2445035.125000,28.7317,-95.2428,0215,0.3580
1982-03-06 15:30:00 UTC,2445035.145833,28.7317,-95.2428,0215,0.3570
1982-03-06 16:00:00 UTC,2445035.166667,28.7317,-95.2428,0215,0.3570
1982-03-06 16:30:00 UTC,2445035.187500,28.7317,-95.2428,0215,0.3570
1982-03-06 17:00:00 UTC,2445035.208333,28.7317,-95.2428,0215,0.3560
1982-03-06 17:30:00 UTC,2445035.229167,28.7317,-95.2428,0215,0.3560
1982-03-06 18:00:00 UTC,2445035.250000,28.7317,-95.2428,0215,0.3560
1982-03-06 18:30:00 UTC,2445035.270833,28.7317,-95.2428,0215,0.3560
1982-03-06 19:00:00 UTC,2445035.291667,28.7317,-95.2428,0215,0.3550
1982-03-06 19:30:00 UTC,2445035.312500,28.7317,-95.2428,0215,0.3540
1982-03-06 20:00:00 UTC,2445035.333333,28.7317,-95.2428,0215,0.3530
1982-03-06 20:30:00 UTC,2445035.354167,28.7317,-95.2428,0215,0.3530
1982-03-06 21:00:00 UTC,2445035.375000,28.7317,-95.2428,0215,0.3530
1982-03-06 21:30:00 UTC,2445035.395833,28.7317,-95.2428,0215,0.3520
1982-03-06 22:00:00 UTC,2445035.416667,28.7317,-95.2428,0215,0.3520
1982-03-06 22:30:00 UTC,2445035.437500,28.7317,-95.2428,0215,0.3520
1982-03-06 23:00:00 UTC,2445035.458333,28.7317,-95.2428,0215,0.3510
1982-03-06 23:30:00 UTC,2445035.479167,28.7317,-95.2428,0215,0.3500
1982-03-07 00:00:00 UTC,2445035.500000,28.7317,-95.2428,0215,0.3480
1982-03-07 00:30:00 UTC,2445035.520833,28.7317,-95.2428,0215,0.3470
1982-03-07 01:00:00 UTC,2445035.541667,28.7317,-95.2428,0215,0.3500
1982-03-07 01:30:00 UTC,2445035.562500,28.7317,-95.2428,0215,0.3510
1982-03-07 02:00:00 UTC,2445035.583333,28.7317,-95.2428,0215,0.3510
1982-03-07 02:30:00 UTC,2445035.604167,28.7317,-95.2428,0215,0.3500
1982-03-07 03:00:00 UTC,2445035.625000,28.7317,-95.2428,0215,0.3500
1982-03-07 03:30:00 UTC,2445035.645833,28.7317,-95.2428,0215,0.3500
1982-03-07 04:00:00 UTC,2445035.666667,28.7317,-95.2428,0215,0.3500
1982-03-07 04:30:00 UTC,2445035.687500,28.7317,-95.2428,0215,0.3500
1982-03-07 05:00:00 UTC,2445035.708333,28.7317,-95.2428,0215,0.3490
1982-03-07 05:30:00 UTC,2445035.729167,28.7317,-95.2428,0215,0.3480
1982-03-07 06:00:00 UTC,2445035.750000,28.7317,-95.2428,0215,0.3480
1982-03-07 06:30:00 UTC,2445035.770833,28.7317,-95.2428,0215,0.3480
1982-03-07 07:00:00 UTC,2445035.791667,28.7317,-95.2428,0215,0.3490
1982-03-07 07:30:00 UTC,2445035.812500,28.7317,-95.2428,0215,0.3490
1982-03-07 08:00:00 UTC,2445035.833333,28.7317,-95.2428,0215,0.3480
1982-03-07 08:30:00 UTC,2445035.854167,28.7317,-95.2428,0215,0.3470
1982-03-07 09:00:00 UTC,2445035.875000,28.7317,-95.2428,0215,0.3480
1982-03-07 09:30:00 UTC,2445035.895833,28.7317,-95.2428,0215,0.3480
1982-03-07 10:00:00 UTC,2445035.916667,28.7317,-95.2428,0215,0.3480
1982-03-07 10:30:00 UTC,2445035.937500,28.7317,-95.2428,0215,0.3470
1982-03-07 11:00:00 UTC,2445035.958333,28.7317,-95.2428,0215,0.3460
1982-03-07 11:30:00 UTC,2445035.979167,28.7317,-95.2428,0215,0.3460
1982-03-07 12:00:00 UTC,2445036.000000,28.7317,-95.2428,0215,0.3460
1982-03-07 12:30:00 UTC,2445036.020833,28.7317,-95.2428,0215,0.3460
1982-03-07 13:00:00 UTC,2445036.041667,28.7317,-95.2428,0215,0.3460
1982-03-07 13:30:00 UTC,2445036.062500,28.7317,-95.2428,0215,0.3450
1982-03-07 14:00:00 UTC,2445036.083333,28.7317,-95.2428,0215,0.3460
1982-03-07 14:30:00 UTC,2445036.104167,28.7317,-95.2428,0215,0.3490
1982-03-07 15:00:00 UTC,2445036.125000,28.7317,-95.2428,0215,0.3510
1982-03-07 15:30:00 UTC,2445036.145833,28.7317,-95.2428,0215,0.3530
1982-03-07 16:00:00 UTC,2445036.166667,28.7317,-95.2428,0215,0.3550
1982-03-07 16:30:00 UTC,2445036.187500,28.7317,-95.2428,0215,0.3540
1982-03-07 17:00:00 UTC,2445036.208333,28.7317,-95.2428,0215,0.3530
1982-03-07 17:30:00 UTC,2445036.229167,28.7317,-95.2428,0215,0.3540
1982-03-07 18:00:00 UTC,2445036.250000,28.7317,-95.2428,0215,0.3550
1982-03-07 18:30:00 UTC,2445036.270833,28.7317,-95.2428,0215,0.3560
1982-03-07 19:00:00 UTC,2445036.291667,28.7317,-95.2428,0215,0.3550
1982-03-07 19:30:00 UTC,2445036.312500,28.7317,-95.2428,0215,0.3540
1982-03-07 20:00:00 UTC,2445036.333333,28.7317,-95.2428,0215,0.3530
1982-03-07 20:30:00 UTC,2445036.354167,28.7317,-95.2428,0215,0.3530
1982-03-07 21:00:00 UTC,2445036.375000,28.7317,-95.2428,0215,0.3540
1982-03-07 21:30:00 UTC,2445036.395833,28.7317,-95.2428,0215,0.3550
1982-03-07 22:00:00 UTC,2445036.416667,28.7317,-95.2428,0215,0.3560
1982-03-07 22:30:00 UTC,2445036.437500,28.7317,-95.2428,0215,0.3570
1982-03-07 23:00:00 UTC,2445036.458333,28.7317,-95.2428,0215,0.3560
1982-03-07 23:30:00 UTC,2445036.479167,28.7317,-95.2428,0215,0.3560
1982-03-08 00:00:00 UTC,2445036.500000,28.7317,-95.2428,0215,0.3550
1982-03-08 00:30:00 UTC,2445036.520833,28.7317,-95.2428,0215,0.3530
1982-03-08 01:00:00 UTC,2445036.541667,28.7317,-95.2428,0215,0.3510
1982-03-08 01:30:00 UTC,2445036.562500,28.7317,-95.2428,0215,0.3500
1982-03-08 02:00:00 UTC,2445036.583333,28.7317,-95.2428,0215,0.3500
1982-03-08 02:30:00 UTC,2445036.604167,28.7317,-95.2428,0215,0.3500
1982-03-08 03:00:00 UTC,2445036.625000,28.7317,-95.2428,0215,0.3500
1982-03-08 03:30:00 UTC,2445036.645833,28.7317,-95.2428,0215,0.3500
1982-03-08 04:00:00 UTC,2445036.666667,28.7317,-95.2428,0215,0.3510
1982-03-08 04:30:00 UTC,2445036.687500,28.7317,-95.2428,0215,0.3510
1982-03-08 05:00:00 UTC,2445036.708333,28.7317,-95.2428,0215,0.3510
1982-03-08 05:30:00 UTC,2445036.729167,28.7317,-95.2428,0215,0.3510
1982-03-08 06:00:00 UTC,2445036.750000,28.7317,-95.2428,0215,0.3510
1982-03-08 06:30:00 UTC,2445036.770833,28.7317,-95.2428,0215,0.3530
1982-03-08 07:00:00 UTC,2445036.791667,28.7317,-95.2428,0215,0.3570
1982-03-08 07:30:00 UTC,2445036.812500,28.7317,-95.2428,0215,0.3580
1982-03-08 08:00:00 UTC,2445036.833333,28.7317,-95.2428,0215,0.3580
1982-03-08 08:30:00 UTC,2445036.854167,28.7317,-95.2428,0215,0.3570
1982-03-08 09:00:00 UTC,2445036.875000,28.7317,-95.2428,0215,0.3590
1982-03-08 09:30:00 UTC,2445036.895833,28.7317,-95.2428,0215,0.3610
1982-03-08 10:00:00 UTC,2445036.916667,28.7317,-95.2428,0215,0.3650
1982-03-08 10:30:00 UTC,2445036.937500,28.7317,-95.2428,0215,0.3680
1982-03-08 11:00:00 UTC,2445036.958333,28.7317,-95.2428,0215,0.3700
1982-03-08 11:30:00 UTC,2445036.979167,28.7317,-95.2428,0215,0.3700
1982-03-08 12:00:00 UTC,2445037.000000,28.7317,-95.2428,0215,0.3700
1982-03-08 12:30:00 UTC,2445037.020833,28.7317,-95.2428,0215,0.3700
1982-03-08 13:00:00 UTC,2445037.041667,28.7317,-95.2428,0215,0.3700
1982-03-08 13:30:00 UTC,2445037.062500,28.7317,-95.2428,0215,0.3700
1982-03-08 14:00:00 UTC,2445037.083333,28.7317,-95.2428,0215,0.3700
1982-03-08 14:30:00 UTC,2445037.104167,28.7317,-95.2428,0215,0.3700
1982-03-08 15:00:00 UTC,2445037.125000,28.7317,-95.2428,0215,0.3710
1982-03-08 15:30:00 UTC,2445037.145833,28.7317,-95.2428,0215,0.3730
1982-03-08 16:00:00 UTC,2445037.166667,28.7317,-95.2428,0215,0.3760
1982-03-08 16:30:00 UTC,2445037.187500,28.7317,-95.2428,0215,0.3780
1982-03-08 17:00:00 UTC,2445037.208333,28.7317,-95.2428,0215,0.3800
1982-03-08 17:30:00 UTC,2445037.229167,28.7317,-95.2428,0215,0.3820
1982-03-08 18:00:00 UTC,2445037.250000,28.7317,-95.2428,0215,0.3830
1982-03-08 18:30:00 UTC,2445037.270833,28.7317,-95.2428,0215,0.3830
1982-03-08 19:00:00 UTC,2445037.291667,28.7317,-95.2428,0215,0.3840
1982-03-08 19:30:00 UTC,2445037.312500,28.7317,-95.2428,0215,0.3840
1982-03-08 20:00:00 UTC,2445037.333333,28.7317,-95.2428,0215,0.3810
1982-03-08 20:30:00 UTC,2445037.354167,28.7317,-95.2428,0215,0.3770
1982-03-08 21:00:00 UTC,2445037.375000,28.7317,-95.2428,0215,0.3730
1982-03-08 21:30:00 UTC,2445037.395833,28.7317,-95.2428,0215,0.3710
1982-03-08 22:00:00 UTC,2445037.416667,28.7317,-95.2428,0215,0.3690
1982-03-08 22:30:00 UTC,2445037.437500,28.7317,-95.2428,0215,0.3670
1982-03-08 23:00:00 UTC,2445037.458333,28.7317,-95.2428,0215,0.3670
1982-03-08 23:30:00 UTC,2445037.479167,28.7317,-95.2428,0215,0.3670
1982-03-09 00:00:00 UTC,2445037.500000,28.7317,-95.2428,0215,0.3660
1982-03-09 00:30:00 UTC,2445037.520833,28.7317,-95.2428,0215,0.3660
1982-03-09 01:00:00 UTC,2445037.541667,28.7317,-95.2428,0215,0.3640
1982-03-09 01:30:00 UTC,2445037.562500,28.7317,-95.2428,0215,0.3620
1982-03-09 02:00:00 UTC,2445037.583333,28.7317,-95.2428,0215,0.3610
1982-03-09 02:30:00 UTC,2445037.604167,28.7317,-95.2428,0215,0.3620
1982-03-09 03:00:00 UTC,2445037.625000,28.7317,-95.2428,0215,0.3640
1982-03-09 03:30:00 UTC,2445037.645833,28.7317,-95.2428,0215,0.3630
1982-03-09 04:00:00 UTC,2445037.666667,28.7317,-95.2428,0215,0.3620
1982-03-09 04:30:00 UTC,2445037.687500,28.7317,-95.2428,0215,0.3630
1982-03-09 05:00:00 UTC,2445037.708333,28.7317,-95.2428,0215,0.3640
1982-03-09 05:30:00 UTC,2445037.729167,28.7317,-95.2428,0215,0.3650
1982-03-09 06:00:00 UTC,2445037.750000,28.7317,-95.2428,0215,0.3660
1982-03-09 06:30:00 UTC,2445037.770833,28.7317,-95.2428,0215,0.3670
1982-03-09 07:00:00 UTC,2445037.791667,28.7317,-95.2428,0215,0.3680
1982-03-09 07:30:00 UTC,2445037.812500,28.7317,-95.2428,0215,0.3690
1982-03-09 08:00:00 UTC,2445037.833333,28.7317,-95.2428,0215,0.3710
1982-03-09 08:30:00 UTC,2445037.854167,28.7317,-95.2428,0215,0.3720
1982-03-09 09:00:00 UTC,2445037.875000,28.7317,-95.2428,0215,0.3730
1982-03-09 09:30:00 UTC,2445037.895833,28.7317,-95.2428,0215,0.3730
1982-03-09 10:00:00 UTC,2445037.916667,28.7317,-95.2428,0215,0.3740
1982-03-09 10:30:00 UTC,2445037.937500,28.7317,-95.2428,0215,0.3750
1982-03-09 11:00:00 UTC,2445037.958333,28.7317,-95.2428,0215,0.3740
1982-03-09 11:30:00 UTC,2445037.979167,28.7317,-95.2428,0215,0.3730
1982-03-09 12:00:00 UTC,2445038.000000,28.7317,-95.2428,0215,0.3700
1982-03-09 12:30:00 UTC,2445038.020833,28.7317,-95.2428,0215,0.3690
1982-03-09 13:00:00 UTC,2445038.041667,28.7317,-95.2428,0215,0.3680
1982-03-09 13:30:00 UTC,2445038.062500,28.7317,-95.2428,0215,0.3670
1982-03-09 14:00:00 UTC,2445038.083333,28.7317,-95.2428,0215,0.3660
1982-03-09 14:30:00 UTC,2445038.104167,28.7317,-95.2428,0215,0.3650
1982-03-09 15:00:00 UTC,2445038.125000,28.7317,-95.2428,0215,0.3650
1982-03-09 15:30:00 UTC,2445038.145833,28.7317,-95.2428,0215,0.3650
1982-03-09 16:00:00 UTC,2445038.166667,28.7317,-95.2428,0215,0.3650
1982-03-09 16:30:00 UTC,2445038.187500,28.7317,-95.2428,0215,0.3650
1982-03-09 17:00:00 UTC,2445038.208333,28.7317,-95.2428,0215,0.3650
1982-03-09 17:30:00 UTC,2445038.229167,28.7317,-95.2428,0215,0.3650
1982-03-09 18:00:00 UTC,2445038.250000,28.7317,-95.2428,0215,0.3650
1982-03-09 18:30:00 UTC,2445038.270833,28.7317,-95.2428,0215,0.3650
1982-03-09 19:00:00 UTC,2445038.291667,28.7317,-95.2428,0215,0.3650
1982-03-09 19:30:00 UTC,2445038.312500,28.7317,-95.2428,0215,0.3660
1982-03-09 20:00:00 UTC,2445038.333333,28.7317,-95.2428,0215,0.3680
1982-03-09 20:30:00 UTC,2445038.354167,28.7317,-95.2428,0215,0.3700
1982-03-09 21:00:00 UTC,2445038.375000,28.7317,-95.2428,0215,0.3710
1982-03-09 21:30:00 UTC,2445038.395833,28.7317,-95.2428,0215,0.3700
1982-03-09 22:00:00 UTC,2445038.416667,28.7317,-95.2428,0215,0.3670
1982-03-09 22:30:00 UTC,2445038.437500,28.7317,-95.2428,0215,0.3630
1982-03-09 23:00:00 UTC,2445038.458333,28.7317,-95.2428,0215,0.3620
1982-03-09 23:30:00 UTC,2445038.479167,28.7317,-95.2428,0215,0.3610
1982-03-10 00:00:00 UTC,2445038.500000,28.7317,-95.2428,0215,0.3600
1982-03-10 00:30:00 UTC,2445038.520833,28.7317,-95.2428,0215,0.3590
1982-03-10 01:00:00 UTC,2445038.541667,28.7317,-95.2428,0215,0.3580
1982-03-10 01:30:00 UTC,2445038.562500,28.7317,-95.2428,0215,0.3580